#timestamp,LO_Frequency,Hit 
1498298415.5,286046991.3,N
1498298435.3,286046991.6,N
1498298455.2,286046988.9,N
1498298475.9,286046988.9,N
1498298495.7,286046987.0,N
1498298515.6,286046987.3,N
1498298535.4,286046987.0,N
1498298555.2,286046986.9,N
1498298575.0,286046989.4,N
1498298575.9,286046989.4,N
1498298595.8,286046989.9,N
1498298615.6,286046987.8,N
1498298635.4,286046988.1,N
1498298655.3,286046988.0,N
1498298675.1,286046988.4,N
1498298695.8,286046987.5,N
1498298715.7,286046988.2,N
1498298735.5,286046988.1,N
1498298755.3,286046985.8,N
1498298775.2,286046986.5,N
1498298795.9,286046986.4,N
1498298815.7,286046986.7,N
1498298835.5,286046986.8,N
1498298855.4,286046984.5,N
1498298875.2,286046982.2,N
1498298895.0,286046982.2,N
1498298895.9,286046982.2,N
1498298915.8,286046983.0,N
1498298935.6,286046980.5,Y
1498298955.4,286046996.0,N
1498298975.3,286046996.3,N
1498298995.1,286046993.6,N
1498299015.8,286046994.2,N
1498299035.7,286046994.7,N
1498299055.5,286046994.6,N
1498299075.3,286046991.7,N
1498299095.2,286046991.8,N
1498299115.9,286046992.0,N
1498299135.7,286046992.9,N
1498299155.6,286046992.9,N
1498299175.4,286046992.1,N
1498299195.2,286046992.0,N
1498299215.0,286046992.3,N
1498299216.0,286046992.3,N
1498299235.8,286046992.4,N
1498299255.6,286046992.6,N
1498299275.4,286046990.2,N
1498299295.3,286046991.2,N
1498299315.1,286046988.6,N
1498299335.8,286046988.6,N
1498299355.7,286046989.5,N
1498299375.5,286046987.0,N
1498299395.3,286046987.5,N
1498299415.2,286046987.4,N
1498299435.9,286046988.3,N
1498299455.7,286046988.0,N
1498299475.6,286046985.7,N
1498299495.4,286046985.7,N
1498299515.2,286046985.3,N
1498299535.1,286046985.5,N
1498299536.0,286046985.5,N
1498299555.8,286046986.0,N
1498299575.6,286046985.4,N
1498299595.4,286046986.8,N
1498299615.3,286046985.7,N
1498299635.1,286046986.2,N
1498299655.8,286046984.1,N
1498299675.7,286046984.7,N
1498299695.5,286046982.1,Y
1498299715.3,286046995.2,N
1498299735.2,286046996.3,N
1498299755.0,286046995.7,N
1498299755.9,286046995.7,N
1498299775.7,286046997.9,N
1498299795.6,286046995.5,N
1498299815.4,286046995.1,N
1498299835.2,286046995.2,N
1498299855.1,286046997.9,N
1498299856.0,286046997.9,N
1498299875.8,286046997.9,N
1498299895.6,286046995.7,N
1498299915.5,286046995.7,N
1498299935.3,286046995.2,N
1498299955.1,286046996.4,N
1498299975.9,286046993.8,N
1498299995.7,286046993.7,N
1498300015.5,286046993.9,N
1498300035.6,286046993.1,N
1498300055.5,286046990.2,N
1498300075.3,286046990.5,N
1498300095.1,286046990.6,N
1498300115.9,286046990.2,N
1498300135.7,286046990.6,N
1498300155.5,286046990.6,N
1498300175.4,286046990.6,N
1498300195.2,286046990.2,N
1498300215.0,286046990.7,N
1498300215.9,286046990.7,N
1498300235.8,286046990.5,N
1498300255.6,286046990.4,N
1498300275.4,286046991.4,N
1498300295.3,286046988.5,N
1498300315.1,286046989.1,N
1498300316.0,286046989.1,N
1498300335.8,286046989.4,N
1498300355.6,286046989.9,N
1498300375.5,286046987.5,N
1498300395.3,286046987.7,N
1498300415.1,286046988.2,N
1498300435.9,286046986.7,N
1498300455.7,286046985.7,N
1498300475.5,286046985.8,N
1498300495.4,286046986.5,N
1498300515.2,286046986.5,N
1498300535.0,286046986.1,N
1498300535.9,286046986.1,N
1498300555.8,286046986.7,N
1498300575.6,286046986.5,N
1498300595.4,286046983.8,Y
1498300615.3,286046997.7,N
1498300635.1,286046997.5,N
1498300636.0,286046997.5,N
1498300655.8,286046997.3,N
1498300675.7,286046998.0,N
1498300695.5,286046994.9,N
1498300715.3,286046993.7,N
1498300735.1,286046994.0,N
1498300755.9,286046992.2,N
1498300775.7,286046991.8,N
1498300795.5,286046992.2,N
1498300815.4,286046994.7,N
1498300835.2,286046992.3,N
1498300855.0,286046991.9,N
1498300855.9,286046991.9,N
1498300875.8,286046992.6,N
1498300895.6,286046992.5,N
1498300915.4,286046992.9,N
1498300935.3,286046990.1,N
1498300955.1,286046990.2,N
1498300956.0,286046990.2,N
1498300975.8,286046993.2,N
1498300995.7,286046992.8,N
1498301015.5,286046991.3,N
1498301035.3,286046989.4,N
1498301055.1,286046987.6,N
1498301075.9,286046987.9,N
1498301095.7,286046986.5,N
1498301115.5,286046986.5,N
1498301135.4,286046986.4,N
1498301155.2,286046985.4,Y
1498301175.0,286046997.7,N
1498301175.9,286046997.7,N
1498301195.8,286046997.5,N
1498301215.6,286046995.7,N
1498301235.4,286046996.3,N
1498301255.3,286046995.7,N
1498301275.1,286046995.9,N
1498301276.0,286046995.9,N
1498301295.8,286046993.6,N
1498301315.7,286046994.0,N
1498301335.5,286046994.5,N
1498301355.3,286046994.4,N
1498301375.2,286046991.8,N
1498301395.9,286046992.5,N
1498301415.7,286046992.9,N
1498301435.6,286046992.8,N
1498301455.4,286046990.6,N
1498301475.2,286046990.8,N
1498301495.0,286046990.7,N
1498301495.9,286046990.7,N
1498301515.8,286046990.4,N
1498301535.6,286046992.7,N
1498301555.4,286046992.8,N
1498301575.3,286046993.0,N
1498301595.1,286046990.3,N
1498301615.8,286046990.3,N
1498301635.7,286046993.0,N
1498301655.5,286046990.2,N
1498301675.3,286046991.0,N
1498301695.2,286046993.1,N
1498301715.9,286046990.5,N
1498301735.7,286046990.8,N
1498301755.6,286046988.6,N
1498301775.4,286046989.9,N
1498301795.2,286046989.2,N
1498301815.0,286046989.4,N
1498301815.9,286046989.4,N
1498301835.8,286046987.4,N
1498301855.6,286046989.8,N
1498301875.4,286046987.1,N
1498301895.3,286046985.7,N
1498301915.1,286046986.2,N
1498301935.8,286046986.2,N
1498301955.7,286046986.6,N
1498301975.5,286046986.4,N
1498301995.3,286046984.0,Y
